Regional Weather Roundup
Issued by NWS

Home | Current Version | Previous Version | Text Only | Print | Product List | Glossary Off
Versions: 1 2 3 4 5 6 7 8 9 10 11 12 13 14 15 16 17 18 19 20 21 22 23 24 25 26 27 28 29 30 31 32 33 34 35 36 37 38 39 40 41 42 43 44 45 46 47 48 49 50

000
ASUS43 KMKX 251411
RWRWI

WISCONSIN REGIONAL WEATHER ROUNDUP
NATIONAL WEATHER SERVICE MILWAUKEE/SULLIVAN WI
800 AM CST SAT FEB 25 2017

NOTE: "FAIR" INDICATES FEW OR NO CLOUDS BELOW 12,000 FEET WITH NO
SIGNIFICANT WEATHER AND/OR OBSTRUCTIONS TO VISIBILITY.

WIZ001-002-006>008-014>016-023>028-251500-
NORTHWEST WISCONSIN

CITY           SKY/WX    TMP DP  RH WIND       PRES   REMARKS
SUPERIOR ARPT  MOCLDY    10   3  73 W3        29.91R
ASHLAND        CLOUDY    14   7  73 W12       29.81R WCI   0
HAYWARD        CLOUDY    10   3  73 NW10      29.81R WCI  -4
SIREN          CLEAR     12   4  70 NW10      29.89R WCI  -2
CUMBERLAND     MOSUNNY   12   3  67 NW18G24   29.84R WCI  -5
RICE LAKE      MOSUNNY   12   4  70 NW10G16   29.86R WCI  -2
CHETEK         CLOUDY    11   3  70 NW6       29.85R WCI   2
LADYSMITH      CLOUDY    12   5  73 NW16      29.80R WCI  -5
EAU CLAIRE     SUNNY     11   3  70 NW12      29.85R WCI  -3
MENOMONIE      SUNNY     13   4  66 W10       29.87R WCI   0
NEW RICHMOND   SUNNY     14   3  61 NW18G25   29.89R WCI  -3
OSCEOLA        CLEAR     15   4  63 NW13      29.94R WCI   1
$$

WIZ003>005-009-010-017-018-251500-
NORTH CENTRAL WISCONSIN

CITY           SKY/WX    TMP DP  RH WIND       PRES   REMARKS
MANITOWISH WTR LGT SNOW  11   9  89 NW15G22   29.65R WCI  -5
ARBOR VITAE    LGT SNOW  14  10  82 NW13G23     N/A  WCI   0
WOODRUFF       LGT SNOW  14  10  82 NW13G23     N/A  WCI   0
RHINELANDER    LGT SNOW  14   8  77 NW12G21   29.64R WCI   0
EAGLE RIVER    LGT SNOW  15  10  80 NW14G20   29.61R WCI   0
LAND O LAKES   LGT SNOW  16  12  84 NW9G17    29.62R WCI   4
PHILLIPS       FLURRIES  10   6  82 NW9G20    29.71R WCI  -2
TOMAHAWK       LGT SNOW  12   6  79 NW10      29.69R WCI  -2
MEDFORD        CLOUDY    11   4  74 NW12G20   29.72R HAZE    WCI  -3
MERRILL        NOT AVBL
$$

WIZ029-030-035-036-043>047-251500-
CENTRAL WISCONSIN

CITY           SKY/WX    TMP DP  RH WIND       PRES   REMARKS
WAUSAU         MIX PCPN  13   5  70 NW16G29   29.70R WCI  -3
MOSINEE        LGT SNOW  12  10  92 NW14G22   29.72R WCI  -3
MARSHFIELD     LGT SNOW  12   5  73 NW16G28   29.74R WCI  -5
STEVENS POINT  CLOUDY    13   6  73 NW8G16    29.73R WCI   2
WAUPACA        CLOUDY    19  13  76 W12G20    29.73R HAZE    WCI   7
WAUTOMA        CLOUDY    15   8  73 NW23G29   29.75R WCI  -3
WISC RAPIDS    FLURRIES  14   5  67 NW15G25   29.77R WCI  -1
CAMP DOUGLAS   PTSUNNY   14   7  73 NW12G21   29.80R WCI   0
$$

WIZ011>013-019>022-031-037>040-048>050-251500-
NORTHEAST WISCONSIN

CITY           SKY/WX    TMP DP  RH WIND       PRES   REMARKS
ANTIGO         LGT SNOW  13   8  81 NW14G21   29.64R WCI  -2
SHAWANO        LGT SNOW  19  15  84 CALM      29.69R
OCONTO         CLOUDY    18  14  84 NW8       29.66R WCI   8
STURGEON BAY   LGT SNOW  19  16  88 W16G24    29.64R FOG     WCI   4
GREEN BAY      LGT SNOW  20  16  84 W14       29.68S FOG     WCI   7
MANITOWOC      LGT SNOW  19  16  88 NW22G29   29.67R VSB 1   WCI   2
APPLETON       LGT SNOW  18  12  79 W12       29.68R WCI   5
CLINTONVILLE   LGT SNOW  18  12  79 NW13G21   29.70R WCI   4
OSHKOSH        LGT SNOW  17  12  80 W15G25    29.71R WCI   2
$$

WIZ032>034-041-042-053>061-251500-
SOUTHWEST WISCONSIN

CITY           SKY/WX    TMP DP  RH WIND       PRES   REMARKS
LA CROSSE      SUNNY     18   7  62 NW22      29.86R WCI   1
SPARTA         SUNNY     15   7  72 NW14G22   29.85R WCI   0
VIROQUA        SUNNY     14   7  73 NW15      29.81R WCI  -2
BOSCOBEL       CLOUDY    19   9  65 NW7       29.87R WCI  10
PRAIRIE DU CHI SUNNY     17   6  61 NW14G22   29.90R WCI   3
PLATTEVILLE    CLOUDY    17  13  84 NW3       29.84R
$$

WIZ056-057-062-063-064-067-068-251500-
SOUTH CENTRAL WISCONSIN

CITY           SKY/WX    TMP DP  RH WIND       PRES   REMARKS
REEDSBURG      CLOUDY    15   8  73 NW12      29.80R WCI   1
BARABOO/DELLS  CLOUDY    15   8  74 NW10G20   29.79R HAZE    WCI   2
LONE ROCK      CLOUDY    18   8  65 NW12      29.84R WCI   5
MINERAL POINT  FLURRIES  19  14  79 CALM      29.80R
MADISON        LGT SNOW  17  10  74 W13G25    29.78R WCI   4
MIDDLETON      PTSUNNY   18  11  75 NW12      29.79R WCI   5
WATERTOWN      CLOUDY    19  15  85 W10G21    29.74R WCI   7
MONROE         LGT SNOW  19  16  86 W15       29.78R WCI   5
JANESVILLE     PTSUNNY   21  18  86 NW12G17   29.78R WCI   9
$$

WIZ051-052-058>065-066-070>072-251500-
SOUTHEAST WISCONSIN

CITY           SKY/WX    TMP DP  RH WIND       PRES   REMARKS
MILWAUKEE      PTSUNNY   22  13  68 NW15G24   29.72R WCI   9
WAUKESHA       LGT SNOW  18  12  79 NW17G24   29.73R WCI   2
MILWAUKEE/TIMM CLOUDY    19  12  73 NW17G23   29.73R HAZE    WCI   4
RACINE         CLOUDY    21  13  71 NW17G28   29.74R WCI   7
KENOSHA        LGT SNOW  21  15  78 NW17G24   29.74R WCI   7
FOND DU LAC    LGT SNOW  18  10  71 NW20G31   29.71R WCI   2
SHEBOYGAN      LGT SNOW  19  13  77 NW16G29   29.68R WCI   4
WEST BEND      LGT SNOW  19  16  86 NW7       29.70R WCI  10
JUNEAU         LGT SNOW  17  13  84 W5        29.74R WCI  10
$$

LSZ147-162-251500-
LAKE SUPERIOR

STATION/POSITION TIME  TEMP    WIND        PRES    WAVE
                       AIR SEA DIR/SP/G            HT/PER
                 (UTC) (F)     (DEG/KT/KT) (MB)    (FT/S)
DEVILS ISLAND    1400   16     310/ 15/ 18 1010.3R
PORT WING        1340   16     310/ 16/ 22 1010.8R
SAXON HARBOR     1340   19     300/ 14/ 24 1008.5R
$$

LMZ867-665-643>646-251500-
LAKE MICHIGAN

STATION/POSITION TIME  TEMP    WIND        PRES    WAVE
                       AIR SEA DIR/SP/G            HT/PER
                 (UTC) (F)     (DEG/KT/KT) (MB)    (FT/S)
CHAMBERS ISLAND  1340   19     280/  1/  2 1002.7R
NORTHPORT PIER   1340   20     290/  2/  3 1001.7R
SISTER BAY       1335   20        CALM       N/A
KEWAUNEE LAKESHO 1348   19     340/ 15/ 29 1003.3R
SHEBOYGAN LAKESH 1400   20     290/  6/  7 1006.0R
PORT WASHINGTON  1330   20     290/ 13/ 18 1006.8R
MILWAUKEE LAKESH 1350   21     290/ 16/ 18   N/A
KENOSHA   LAKESH 1400   21     310/ 18/ 22 1007.1
$$

TC  - TEMPERATURE IN CELSIUS
VSB - VISIBILITY IN STATUTE MILES
WCI - WIND CHILL INDEX
HX  - HEAT INDEX




USA.gov is the U.S. government's official web portal to all federal, state and local government web resources and services.